Regional Weather Roundup
Issued by NWS

Home | Current Version | Previous Version | Graphics & Text | Print | Product List | Glossary Off
Versions: 1 2 3 4 5 6 7 8 9 10 11 12 13 14 15 16 17 18 19 20 21 22 23 24 25 26 27 28 29 30 31 32 33 34 35 36 37 38 39 40 41 42 43 44 45 46 47 48 49 50

000
ASUS43 KDMX 272007
RWRIA

WEATHER ROUNDUP FOR IOWA
NATIONAL WEATHER SERVICE DES MOINES IA
300 PM CDT MON JUL 27 2015

NOTE: "FAIR" INDICATES FEW OR NO CLOUDS BELOW 12,000 FEET WITH NO
SIGNIFICANT WEATHER AND/OR OBSTRUCTIONS TO VISIBILITY.

* - THESE STATIONS ARE NOT NWS STATIONS...THUS NOT UNDER NWS
QUALITY CONTROL.  THEY ALSO DO NOT REPORT WEATHER SUCH
AS PRECIPITATION OR FOG.

IAZ001>003-012>014-020>022-031>034-043>046-272100-
   NORTHWEST IOWA

CITY           SKY/WX    TMP DP  RH WIND       PRES   REMARKS
CARROLL *      CLOUDY    72  70  94 SE7       29.91F
CHEROKEE *     MOSUNNY   82  72  69 S12G17    29.87F HX  87
DENISON *      SUNNY     79  72  78 SE15G22   29.88F HAZE    HX  82
LE MARS *      SUNNY     84  72  65 SE18G28   29.86F HX  89
ORANGE CITY *  SUNNY     82  70  65 S10G17    29.87F HX  86
SHELDON *      SUNNY     84  70  61 SE14G21   29.87F HX  88
SIOUX CITY     MOSUNNY   84  71  65 S17G24    29.86F HX  89
SPENCER        PTSUNNY   83  71  67 SE9       29.90S HX  87
STORM LAKE *   SUNNY     81  70  69 S15       29.90F HX  84
$$

IAZ055>058-069>071-079>083-090>094-272100-
   SOUTHWEST IOWA

CITY           SKY/WX    TMP DP  RH WIND       PRES   REMARKS
ATLANTIC *     CLOUDY    77  72  83 E10       29.93S
AUDUBON *      MOSUNNY   77  72  83 SE10      29.94S
CLARINDA *     DRIZZLE   84  81  89 CALM      29.91F HX  98
COUNCIL BLFS * MOSUNNY   84  77  79 SE12      29.90F HX  94
CRESTON *      HVY RAIN  72  68  88 SW32G61   30.01R VSB 1/4
HARLAN  *      SUNNY     79  79 100 SE12      29.94F HX  83
LAMONI         CLOUDY    91  81  72 VRB6      29.91F HX 111
RED OAK *      MOSUNNY   86  79  79 E8        29.90F HX  99
SHENANDOAH *   MOSUNNY   84  77  79 E3        29.89S HX  94
$$

IAZ047>049-059>061-072>074-084-272100-
   CENTRAL IOWA

CITY           SKY/WX    TMP DP  RH WIND       PRES   REMARKS
AMES           RAIN      70  68  93 E5        29.97F FOG
ANKENY *       LGT RAIN  70  70 100 MISG      29.96F
CHARITON *     HVY RAIN  72  70  94 E9        29.97R VSB 1/2
DES MOINES     LGT RAIN  74  69  85 NE17      29.94F
GRINNELL*      HVY RAIN  70  68  94 NW13G24   30.04R
KNOXVILLE *    HVY RAIN  72  70  94 NE22G30   29.94F VSB 3/4
MARSHALLTOWN   TSTM      70  68  93 SW6       30.01S FOG
PELLA *        HVY RAIN  72  72 100 NW16G33   30.00R
PERRY *        LGT RAIN  70  66  88 NE13      29.93F
$$

IAZ004>006-015-016-023>025-035-036-272100-
   NORTH CENTRAL IOWA

CITY           SKY/WX    TMP DP  RH WIND       PRES   REMARKS
ALGONA *       SUNNY     81  70  69 SE14G20   29.89F HX  84
CLARION *      SUNNY     73  70  88 S15       29.93F
ESTHERVILLE    CLOUDY    79  71  76 SE13      29.91F HX  82
FORT DODGE *   CLOUDY    72  64  78 S6        29.91F
MASON CITY     CLOUDY    75  73  93 S13       29.99F
FOREST CITY *  MOSUNNY   79  73  83 SE22G28   29.93F HX  82
IOWA FALLS *   LGT RAIN  72  68  88 SE8       29.99F
$$

IAZ007>011-017>019-026>030-037>042-050>054-066-272100-
   NORTHEAST IOWA

CITY           SKY/WX    TMP DP  RH WIND       PRES   REMARKS
CEDAR RAPIDS   CLOUDY    83  75  77 SE5       29.98S HX  90
CHARLES CITY * MOSUNNY   81  75  83 SE12      29.99S HX  86
CLINTON *      PTSUNNY   84  72  65 E10       30.00F HX  89
DUBUQUE        PTSUNNY   83  68  60 SE8       30.01F HX  86
MONTICELLO *   SUNNY     82  72  69 SE7       29.99S HX  87
OELWEIN *      MOSUNNY   81  73  78 S8        30.01S HX  85
WATERLOO       CLOUDY    81  73  76 S7        29.98S HX  86
$$

IAZ064-065-067-068-078-272100-
   EAST CENTRAL IOWA

CITY           SKY/WX    TMP DP  RH WIND       PRES   REMARKS
DAVENPORT      PTSUNNY   84  71  65 E10       29.99S HX  89
IOWA CITY      CLOUDY    85  72  65 VRB5      29.98F HX  91
MT. PLEASANT * PTSUNNY   88  70  55 NE7       29.96S HX  92
MUSCATINE *    PTSUNNY   86  72  62 VRB5      29.97S HX  92
QUAD CITIES    PTSUNNY   86  70  58 E8        29.98R HX  90
$$

IAZ062-063-075>077-085>089-095>099-272100-
   SOUTHEAST IOWA

CITY           SKY/WX    TMP DP  RH WIND       PRES   REMARKS
BURLINGTON     MOSUNNY   88  76  67 SE7       29.96S HX  99
FAIRFIELD *    MOSUNNY   86  73  66 E10       29.95F HX  93
FORT MADISON * MOSUNNY   84  77  79 E5        29.97R HX  94
KEOKUK *       SUNNY     88  75  66 E9        29.94S HX  97
OSKALOOSA *      N/A     81  75  83 E7        29.97S HX  86
CENTERVILLE *  SUNNY     84  77  79 E12       29.94F HX  94
OTTUMWA        CLOUDY    84  76  76 E9        29.93F HX  93
WASHINGTON *   MOSUNNY   86  73  66 E9        29.97F HX  93
$$

ABBREVIATIONS USED IN REMARKS
   TC - TEMPERATURES IN CELSIUS
  WCI - WIND CHILL INDEX
   HX - HEAT INDEX
  VSB - VISIBILITY
$$



USA.gov is the U.S. government's official web portal to all federal, state and local government web resources and services.